Temp
-5 -5 -4 -4 -4 -4 -4 -4 -4 -4 -4 -4 -3 -3 -3 -3 -3 -3 -3 -3 -3 -3 -3 -3 -3 -3 -3 -2 -2 -2 -2 -2 -2 -2 -2 -2 -2 -2 -1 -1 -1 -0 1 1 1 1 1 1 1 1 1 1 1 1 1 1 1 1 1 1 1 1 1
-7 -6 -6 -5 -5 -5 -5 -5 -5 -4 -4 -4 -4 -4 -4 -4 -4 -4 -4 -4 -4 -4 -3 -3 -3 -3 -3 -3 -3 -3 -3 -3 -3 -3 -3 -3 -3 -2 -2 -2 -2 -1 -0 0 1 0 -0 0 0 0 0 0 0 0 1 1 1 1 1 1 1 1 1
-8 -7 -7 -7 -7 -6 -6 -6 -6 -6 -5 -5 -5 -5 -5 -5 -4 -4 -4 -4 -4 -4 -4 -4 -4 -4 -4 -3 -3 -3 -4 -4 -4 -4 -4 -3 -3 -3 -3 -3 -3 -2 -2 -1 -0 -0 -0 -1 -1 -0 -1 -0 -0 -0 -0 -0 -0 -0 -0 0 0 -0 0
-8 -8 -8 -8 -8 -8 -8 -7 -7 -7 -7 -6 -6 -6 -6 -5 -5 -5 -5 -5 -5 -5 -4 -4 -4 -4 -4 -4 -4 -4 -4 -4 -4 -4 -4 -4 -4 -4 -4 -3 -3 -3 -3 -2 -1 -1 -1 -1 -1 -1 -1 -1 -1 -1 -1 -1 -1 -1 -1 -1 -1 -1 -1
-9 -9 -9 -9 -9 -8 -8 -8 -8 -8 -7 -7 -7 -7 -7 -6 -6 -6 -6 -5 -5 -5 -5 -5 -5 -5 -5 -4 -4 -5 -5 -4 -4 -4 -4 -4 -4 -4 -4 -4 -4 -4 -4 -3 -3 -2 -1 -1 -2 -2 -2 -2 -2 -2 -2 -2 -2 -2 -2 -2 -2 -2 -1
-10 -10 -10 -10 -10 -9 -9 -9 -8 -8 -8 -8 -8 -8 -8 -7 -7 -7 -6 -6 -6 -6 -5 -5 -5 -5 -5 -5 -5 -5 -5 -5 -4 -4 -5 -5 -5 -5 -5 -5 -5 -5 -4 -4 -4 -3 -2 -2 -2 -2 -3 -3 -3 -3 -3 -3 -3 -3 -3 -3 -3 -2 -2
-11 -11 -11 -11 -11 -10 -10 -9 -9 -9 -8 -8 -9 -8 -8 -8 -8 -8 -7 -7 -7 -6 -6 -6 -6 -6 -6 -6 -6 -6 -5 -5 -5 -5 -5 -5 -5 -5 -5 -5 -5 -5 -5 -5 -4 -4 -3 -3 -3 -3 -3 -3 -3 -4 -4 -4 -4 -4 -4 -3 -3 -3 -3
-12 -12 -12 -12 -11 -11 -11 -10 -10 -9 -9 -9 -10 -9 -9 -9 -9 -8 -8 -8 -7 -7 -7 -7 -7 -6 -6 -6 -6 -6 -6 -6 -6 -6 -6 -5 -5 -5 -5 -5 -5 -5 -5 -5 -5 -4 -4 -4 -4 -4 -4 -4 -5 -5 -5 -5 -5 -4 -4 -4 -4 -3 -3
-13 -13 -13 -13 -12 -12 -12 -11 -11 -11 -11 -11 -11 -10 -10 -10 -9 -9 -9 -9 -9 -8 -8 -8 -8 -7 -7 -7 -7 -7 -7 -7 -7 -7 -7 -6 -6 -6 -6 -6 -6 -5 -5 -5 -5 -5 -4 -4 -4 -4 -4 -5 -5 -5 -5 -5 -5 -5 -5 -4 -4 -4 -4
-14 -14 -14 -14 -13 -13 -12 -12 -12 -12 -12 -12 -11 -11 -10 -10 -10 -10 -9 -9 -9 -9 -9 -9 -8 -8 -8 -8 -8 -8 -8 -7 -7 -7 -7 -7 -7 -7 -7 -7 -6 -6 -5 -5 -4 -4 -4 -4 -4 -4 -4 -5 -5 -5 -5 -5 -5 -6 -5 -5 -5 -5 -5
-15 -15 -15 -15 -14 -14 -13 -13 -13 -12 -13 -12 -12 -11 -11 -10 -10 -10 -10 -10 -10 -10 -10 -10 -9 -9 -9 -9 -9 -9 -8 -8 -8 -8 -8 -8 -7 -7 -7 -7 -7 -6 -6 -5 -5 -5 -4 -4 -4 -4 -5 -5 -5 -6 -6 -5 -5 -5 -5 -5 -4 -4 -5
-17 -16 -16 -16 -15 -15 -14 -14 -13 -13 -13 -13 -12 -11 -11 -11 -10 -10 -10 -10 -10 -10 -10 -10 -10 -10 -10 -10 -9 -9 -9 -9 -9 -8 -8 -8 -8 -8 -8 -8 -8 -7 -7 -6 -6 -5 -5 -5 -5 -5 -5 -6 -6 -6 -6 -6 -6 -5 -5 -5 -5 -4 -4
-18 -17 -17 -17 -16 -16 -16 -15 -14 -14 -14 -13 -12 -12 -11 -11 -11 -11 -11 -11 -11 -11 -11 -11 -11 -11 -11 -11 -10 -10 -10 -10 -9 -9 -9 -8 -8 -8 -8 -8 -8 -8 -8 -7 -7 -6 -6 -6 -6 -5 -6 -6 -6 -6 -6 -6 -6 -6 -6 -6 -5 -5 -5
-18 -18 -18 -17 -18 -18 -17 -16 -15 -15 -15 -14 -13 -13 -12 -12 -12 -12 -12 -11 -11 -11 -11 -11 -11 -11 -11 -11 -11 -11 -11 -11 -10 -10 -9 -9 -9 -9 -8 -8 -8 -8 -8 -8 -8 -8 -7 -7 -7 -6 -6 -6 -6 -6 -7 -7 -7 -7 -7 -6 -6 -6 -6
-19 -19 -18 -18 -18 -19 -18 -17 -16 -16 -16 -15 -15 -14 -13 -13 -13 -13 -13 -12 -12 -12 -12 -12 -12 -12 -12 -12 -12 -12 -12 -11 -11 -11 -11 -10 -10 -9 -9 -9 -8 -8 -8 -9 -9 -8 -8 -8 -8 -8 -7 -7 -7 -7 -7 -7 -7 -7 -6 -6 -7 -7 -7
-20 -20 -20 -19 -19 -19 -19 -18 -17 -17 -17 -16 -16 -15 -14 -14 -14 -14 -13 -13 -13 -13 -13 -13 -13 -12 -12 -12 -12 -12 -12 -12 -12 -12 -12 -11 -11 -11 -10 -10 -10 -9 -9 -9 -9 -9 -9 -9 -8 -8 -8 -8 -8 -8 -7 -7 -7 -7 -7 -7 -8 -8 -8
-21 -21 -20 -20 -20 -20 -20 -19 -18 -18 -18 -18 -17 -16 -15 -15 -15 -14 -14 -14 -14 -14 -14 -14 -14 -13 -13 -13 -12 -13 -13 -13 -12 -12 -12 -12 -12 -11 -11 -11 -11 -10 -10 -10 -10 -9 -9 -9 -9 -8 -8 -8 -8 -8 -8 -8 -8 -8 -8 -8 -8 -8 -8
-21 -21 -21 -21 -20 -20 -20 -20 -19 -19 -19 -18 -17 -16 -16 -15 -15 -15 -15 -15 -15 -15 -15 -15 -14 -14 -14 -13 -13 -13 -13 -12 -12 -12 -12 -12 -12 -12 -12 -11 -11 -11 -10 -10 -10 -10 -9 -9 -9 -9 -8 -8 -8 -8 -8 -8 -8 -8 -8 -8 -8 -8 -8
-22 -22 -22 -21 -21 -21 -20 -20 -20 -19 -19 -19 -18 -17 -16 -16 -16 -16 -16 -16 -16 -15 -15 -15 -15 -15 -15 -14 -14 -13 -13 -13 -12 -13 -13 -13 -13 -13 -12 -12 -11 -11 -11 -10 -10 -10 -10 -10 -10 -9 -9 -9 -8 -8 -8 -8 -8 -8 -8 -9 -8 -8 -8
-22 -22 -22 -22 -21 -21 -21 -21 -20 -20 -20 -20 -19 -18 -17 -17 -17 -17 -17 -17 -16 -16 -16 -16 -16 -16 -15 -15 -15 -14 -14 -14 -13 -13 -13 -13 -13 -13 -13 -12 -12 -12 -11 -11 -11 -10 -10 -10 -10 -10 -10 -9 -9 -9 -8 -8 -8 -8 -9 -9 -9 -9 -8
-22 -23 -22 -22 -22 -21 -21 -21 -21 -20 -20 -20 -19 -18 -18 -18 -18 -18 -18 -17 -17 -17 -16 -16 -16 -16 -16 -16 -16 -15 -15 -15 -14 -14 -14 -13 -13 -13 -13 -12 -12 -12 -12 -11 -11 -11 -10 -10 -10 -10 -10 -10 -9 -9 -9 -8 -8 -8 -9 -9 -9 -9 -9
-23 -23 -23 -22 -22 -22 -21 -21 -21 -21 -21 -21 -20 -20 -19 -19 -19 -19 -18 -18 -18 -17 -17 -17 -17 -17 -17 -17 -17 -16 -16 -15 -15 -14 -14 -14 -13 -13 -13 -13 -13 -13 -12 -12 -12 -11 -11 -10 -10 -10 -10 -9 -9 -9 -9 -9 -8 -8 -9 -9 -9 -9 -9
-23 -23 -23 -23 -22 -21 -22 -22 -22 -21 -21 -21 -21 -21 -20 -20 -19 -19 -19 -19 -18 -18 -17 -17 -17 -17 -17 -17 -17 -17 -16 -16 -15 -15 -14 -14 -14 -13 -13 -14 -14 -13 -13 -12 -12 -11 -11 -10 -10 -10 -10 -9 -9 -9 -9 -9 -9 -9 -9 -9 -10 -10 -10
-23 -23 -23 -22 -22 -22 -22 -22 -22 -22 -22 -22 -21 -21 -21 -20 -20 -20 -20 -19 -19 -18 -18 -18 -18 -18 -18 -18 -18 -17 -17 -17 -16 -16 -15 -15 -14 -14 -14 -14 -14 -14 -13 -13 -12 -12 -11 -11 -10 -10 -10 -10 -9 -10 -10 -10 -10 -10 -10 -10 -10 -11 -11
-23 -23 -23 -22 -22 -22 -22 -22 -22 -22 -22 -22 -22 -22 -21 -21 -21 -20 -20 -20 -19 -19 -18 -19 -19 -19 -19 -19 -18 -18 -18 -17 -17 -17 -16 -16 -15 -15 -15 -15 -15 -14 -14 -13 -13 -12 -12 -11 -11 -11 -10 -10 -10 -10 -10 -10 -10 -10 -11 -11 -11 -12 -12
-23 -23 -23 -23 -23 -23 -23 -23 -22 -22 -22 -22 -22 -22 -22 -21 -21 -21 -21 -20 -20 -19 -19 -19 -19 -19 -19 -19 -19 -19 -18 -18 -18 -17 -17 -17 -16 -16 -15 -15 -15 -15 -14 -14 -13 -13 -12 -12 -12 -11 -11 -11 -11 -11 -11 -11 -11 -11 -12 -12 -13 -13 -14
-24 -23 -23 -23 -23 -23 -23 -23 -22 -22 -22 -22 -22 -22 -22 -21 -21 -21 -21 -20 -20 -20 -20 -19 -19 -19 -19 -19 -19 -19 -19 -18 -18 -17 -17 -16 -16 -16 -15 -15 -15 -15 -15 -15 -14 -13 -13 -13 -12 -12 -12 -11 -11 -12 -12 -12 -12 -12 -13 -14 -14 -14 -15
-24 -24 -24 -24 -23 -23 -23 -23 -22 -22 -22 -22 -23 -23 -22 -22 -22 -21 -21 -21 -20 -20 -20 -20 -20 -19 -19 -19 -19 -19 -19 -18 -18 -17 -17 -16 -16 -16 -16 -16 -16 -16 -16 -15 -15 -14 -14 -13 -13 -12 -12 -12 -12 -13 -13 -13 -13 -14 -14 -15 -15 -15 -16
-25 -24 -24 -24 -24 -23 -23 -23 -23 -23 -23 -23 -23 -23 -23 -22 -22 -22 -22 -21 -21 -21 -21 -20 -20 -19 -19 -19 -19 -19 -19 -18 -18 -17 -17 -17 -17 -17 -16 -16 -16 -16 -16 -15 -15 -15 -14 -14 -14 -13 -13 -13 -14 -14 -14 -14 -14 -15 -15 -15 -15 -15 -16
-25 -25 -24 -24 -24 -24 -23 -23 -23 -24 -24 -24 -24 -23 -23 -23 -23 -22 -22 -22 -21 -21 -20 -20 -20 -20 -20 -20 -20 -20 -19 -19 -19 -18 -18 -17 -17 -17 -17 -17 -16 -16 -16 -16 -16 -16 -15 -15 -14 -14 -14 -14 -15 -15 -15 -15 -15 -16 -15 -15 -15 -15 -15
-25 -25 -25 -25 -25 -24 -24 -24 -25 -25 -25 -24 -24 -24 -23 -23 -23 -23 -22 -22 -22 -21 -21 -20 -20 -20 -20 -20 -20 -20 -20 -20 -20 -20 -19 -19 -18 -17 -17 -17 -17 -16 -17 -17 -16 -16 -16 -16 -15 -15 -15 -15 -15 -16 -16 -17 -17 -17 -16 -16 -15 -15 -15
-26 -26 -25 -25 -25 -25 -25 -25 -25 -25 -25 -25 -25 -24 -24 -24 -24 -23 -23 -23 -23 -22 -22 -21 -21 -21 -21 -21 -21 -21 -21 -21 -21 -20 -20 -20 -19 -18 -18 -17 -17 -18 -18 -17 -16 -16 -16 -16 -16 -16 -16 -16 -16 -17 -17 -17 -17 -17 -17 -16 -15 -15 -16
-26 -26 -26 -26 -26 -26 -26 -26 -26 -26 -26 -25 -25 -25 -25 -25 -24 -24 -24 -24 -23 -23 -22 -22 -22 -21 -21 -21 -21 -21 -21 -21 -21 -21 -21 -20 -20 -19 -19 -19 -19 -19 -18 -18 -17 -17 -16 -16 -17 -17 -17 -17 -18 -18 -18 -18 -18 -17 -17 -16 -16 -16 -17
-27 -27 -27 -27 -27 -27 -27 -27 -27 -27 -27 -26 -26 -26 -25 -25 -25 -25 -25 -24 -24 -23 -23 -22 -22 -22 -22 -22 -22 -22 -22 -22 -22 -22 -21 -21 -21 -20 -20 -20 -19 -19 -19 -19 -18 -17 -17 -17 -17 -17 -17 -17 -18 -18 -18 -18 -18 -18 -17 -17 -16 -16 -17
-27 -27 -27 -27 -27 -27 -27 -27 -27 -27 -27 -27 -26 -26 -26 -26 -26 -25 -25 -24 -24 -24 -24 -23 -23 -23 -23 -23 -23 -23 -23 -23 -22 -22 -22 -22 -21 -21 -21 -21 -20 -20 -19 -19 -19 -18 -18 -18 -18 -18 -17 -17 -18 -18 -17 -17 -18 -18 -17 -17 -17 -17 -18
-27 -27 -28 -28 -28 -28 -28 -28 -27 -27 -27 -27 -27 -27 -27 -27 -26 -26 -26 -25 -25 -25 -25 -24 -24 -24 -23 -23 -23 -24 -23 -23 -23 -23 -23 -22 -22 -22 -22 -21 -21 -20 -20 -20 -20 -19 -19 -19 -19 -19 -18 -18 -18 -18 -17 -17 -18 -18 -18 -18 -18 -18 -18
Height
797 797 797 796 797 797 797 797 797 798 798 798 798 798 799 800 800 801 801 802 802 802 803 804 804 804 805 806 807 808 809 809 810 811 812 813 814 814 815 816 817 815 814 814 814 815 816 818 819 819 820 821 822 823 824 824 824 825 826 826 827 828 828
799 798 798 797 797 796 796 796 796 797 797 797 797 797 797 798 798 799 799 800 800 800 800 801 801 802 802 803 804 805 806 806 807 808 809 809 810 811 812 812 813 813 812 812 812 813 814 815 816 817 817 818 819 820 821 821 822 822 823 823 824 825 825
801 800 799 798 798 797 797 796 796 796 796 796 796 796 796 796 797 797 797 798 798 798 798 798 799 799 800 801 801 802 803 803 804 805 805 806 807 807 808 809 809 810 809 809 810 810 811 811 812 813 814 815 816 817 818 818 819 819 819 820 821 822 822
802 801 800 799 799 798 797 797 796 796 795 795 795 795 795 795 795 795 795 796 796 796 796 796 796 797 798 799 799 799 800 800 801 802 802 802 803 804 805 806 806 806 807 807 807 807 808 808 809 810 810 811 813 814 814 815 815 816 816 817 818 819 819
803 802 801 800 799 799 798 797 797 796 796 795 795 795 794 794 794 794 794 794 794 794 794 794 795 795 795 796 796 796 797 797 798 798 799 799 800 800 801 802 803 803 804 805 804 804 805 806 806 807 807 807 809 810 811 811 812 812 812 813 814 815 815
804 803 802 801 800 799 798 798 797 796 796 795 795 794 794 793 793 792 792 792 792 792 792 792 792 793 793 793 793 794 794 794 795 796 796 796 796 797 798 799 799 800 801 801 801 801 802 802 803 804 804 804 805 806 807 807 808 808 809 810 810 810 811
805 804 803 802 801 800 799 798 797 796 796 795 795 794 793 793 792 792 791 790 790 790 790 789 790 790 790 791 791 791 792 792 793 793 793 793 794 795 796 796 796 797 797 797 797 798 798 799 799 800 800 800 801 803 804 804 804 804 804 805 805 806 806
806 805 804 803 802 800 799 798 797 796 795 795 794 794 793 792 792 791 790 790 789 788 788 788 788 788 788 788 788 789 789 790 790 791 790 791 791 792 793 793 794 794 794 794 794 794 794 795 795 796 796 797 798 799 799 799 800 800 800 801 801 802 802
807 805 804 803 802 801 799 798 797 796 795 795 795 794 793 792 791 790 790 789 788 788 787 787 787 786 786 786 786 786 786 787 787 788 788 788 789 789 789 790 790 791 790 791 790 790 791 791 791 791 791 792 792 793 794 795 796 796 797 798 798 797 798
807 805 804 803 801 800 799 798 797 796 795 795 795 794 793 791 791 790 789 788 787 787 786 786 785 785 785 784 784 784 784 784 784 784 785 785 786 786 786 786 787 787 787 787 786 786 787 786 785 785 786 786 787 789 791 792 793 793 794 796 795 794 793
807 805 804 802 801 799 798 797 796 795 794 794 794 793 792 791 790 789 788 787 786 786 785 784 784 783 783 783 783 783 782 782 782 782 782 782 782 783 783 784 784 784 784 784 783 782 783 782 780 781 782 783 784 786 787 788 789 789 790 792 791 790 788
806 805 803 802 800 799 797 796 795 794 793 793 792 792 791 789 788 787 786 786 785 784 784 783 782 782 781 781 781 780 780 780 780 779 779 779 779 779 779 780 780 780 781 781 780 779 778 777 777 778 778 779 780 783 783 784 785 785 786 787 786 785 784
805 804 802 801 799 798 796 795 794 793 792 792 791 790 789 788 786 785 785 784 783 783 782 781 780 780 779 778 778 778 777 777 777 776 776 776 776 776 776 776 776 776 777 778 778 776 774 773 774 774 774 775 777 779 779 780 781 781 782 782 781 780 781
804 803 801 800 798 796 795 794 792 791 791 791 790 789 788 786 785 783 783 782 781 781 780 779 779 778 777 776 776 775 775 774 774 773 773 773 772 772 772 772 772 772 773 774 773 772 769 769 771 771 771 772 774 774 775 775 776 777 777 777 777 777 778
803 801 799 798 797 795 793 792 791 790 790 789 788 787 786 784 783 782 781 780 780 779 778 778 777 776 775 774 774 774 773 772 772 771 770 770 769 768 768 768 768 768 769 769 768 767 765 765 767 767 767 769 770 770 771 771 772 773 774 774 774 775 775
801 799 798 796 795 793 792 791 790 789 788 787 786 785 784 783 781 780 779 778 777 777 776 776 775 774 773 772 772 771 771 771 770 769 768 767 766 766 765 764 764 764 764 764 764 763 762 762 763 763 763 765 766 766 767 769 770 770 771 772 772 772 771
800 798 796 795 793 792 790 789 788 787 786 785 785 784 783 781 780 779 777 776 776 775 774 774 773 772 772 771 770 769 769 769 769 768 767 766 764 764 762 761 761 761 760 760 760 759 759 758 758 759 760 761 762 762 763 765 765 764 765 768 768 766 766
798 797 795 793 792 790 789 787 786 785 784 784 783 782 781 779 778 777 775 774 774 773 772 771 770 770 769 768 768 768 767 767 767 766 765 764 763 761 760 759 759 758 757 756 756 755 755 754 754 755 755 756 757 758 759 759 758 758 761 762 762 761 762
797 795 794 792 790 789 787 785 784 783 783 782 781 781 779 778 776 775 774 773 772 771 770 769 768 768 767 766 766 766 765 765 765 764 763 762 761 759 757 757 757 756 755 754 753 752 751 750 750 750 750 751 751 753 754 753 752 754 756 756 756 757 759
795 793 791 790 788 787 785 784 782 781 781 780 779 779 778 777 775 774 773 772 770 769 768 767 766 765 765 765 764 763 762 762 762 762 761 760 759 757 755 755 755 754 753 751 750 749 748 747 746 746 746 746 746 747 748 747 747 748 750 750 751 753 753
794 792 790 788 787 785 783 782 781 780 779 778 778 777 777 775 774 773 772 770 769 768 766 765 765 764 763 763 762 761 760 760 760 760 759 757 756 754 753 753 752 751 750 749 747 746 745 744 743 742 741 741 741 741 742 742 742 743 744 745 746 748 748
792 790 788 787 785 783 782 780 779 778 777 776 776 775 775 774 773 772 770 769 767 766 765 764 763 762 762 761 761 760 759 758 757 756 755 754 752 752 751 751 750 748 747 746 744 743 742 740 739 738 738 737 737 737 737 738 738 738 739 740 741 743 743
790 788 786 785 783 782 780 779 778 776 775 774 774 773 772 772 771 770 769 767 765 764 763 762 761 760 760 759 758 758 757 756 754 753 752 750 749 749 749 748 747 746 745 743 742 740 738 736 735 735 734 733 733 733 734 734 734 735 736 737 737 738 739
789 787 785 783 782 780 779 777 776 775 773 773 772 770 770 769 768 767 766 765 764 762 761 760 759 759 758 757 756 755 754 753 751 750 749 748 747 747 746 745 744 743 741 740 738 737 735 733 732 731 730 730 730 730 730 730 731 732 733 733 733 734 735
787 786 784 782 780 779 777 776 775 773 772 771 770 769 768 767 766 765 764 763 762 760 759 758 757 756 756 754 753 752 751 750 748 747 746 745 744 744 743 742 741 740 738 737 735 733 732 730 729 728 727 727 727 727 726 726 727 728 729 729 730 731 732
786 784 783 781 779 777 776 774 773 772 770 769 768 767 766 765 764 763 762 761 760 758 757 756 755 754 753 752 751 750 748 746 745 744 743 742 741 740 740 739 738 737 735 734 732 730 729 727 726 726 725 724 724 723 723 723 724 724 725 726 727 729 730
784 783 781 779 777 776 774 773 771 770 769 768 767 766 765 764 763 761 760 759 758 756 755 754 753 752 751 749 748 746 745 743 742 741 740 739 738 737 736 735 734 733 732 730 729 727 726 725 724 723 721 721 721 720 720 720 721 721 722 723 725 727 728
783 782 780 778 776 774 773 771 770 769 768 767 766 765 764 762 761 760 759 757 756 755 753 752 751 749 748 747 745 744 742 741 739 738 737 736 735 734 733 732 731 730 729 727 726 724 723 722 721 719 718 718 718 717 717 717 718 719 720 721 723 725 726
781 780 778 777 775 773 771 769 768 767 766 765 765 764 762 761 760 758 757 756 754 753 751 750 748 747 746 745 743 742 740 739 737 736 734 733 732 731 730 729 728 727 726 724 723 722 720 719 718 716 716 715 715 714 714 715 716 717 717 719 721 722 724
779 778 777 775 773 772 770 768 766 765 764 763 762 762 760 759 758 756 755 754 752 750 748 747 746 745 744 743 741 740 739 737 736 734 733 731 730 729 728 727 726 725 724 722 721 720 718 717 715 714 713 713 712 712 712 713 714 715 715 717 718 720 722
777 776 774 773 771 769 768 766 764 763 762 761 760 759 757 756 755 754 753 752 750 748 746 745 744 743 742 741 740 739 737 736 734 733 731 730 729 727 726 725 724 723 722 721 720 718 716 715 714 713 712 711 711 711 711 711 712 713 714 716 717 718 720
773 772 771 770 769 767 765 764 762 761 760 759 757 756 755 754 752 751 751 750 748 747 745 743 742 741 740 739 738 737 736 735 733 732 730 729 727 726 724 723 722 721 720 719 718 717 716 714 713 712 711 711 710 710 711 711 712 713 714 715 716 717 718
770 769 768 767 766 764 763 762 760 759 758 756 755 754 752 751 750 749 748 747 746 745 743 742 741 739 738 738 737 736 735 733 732 731 729 728 726 725 723 722 721 719 719 718 717 716 715 714 713 712 711 710 710 710 710 711 711 712 713 714 716 717 717
766 765 764 763 762 761 760 759 758 756 755 754 753 751 750 749 747 746 745 745 744 743 741 740 739 738 737 736 735 734 733 732 731 730 728 727 725 724 722 721 719 718 717 717 716 715 714 713 712 711 711 710 710 710 710 711 711 712 713 714 715 716 717
763 762 761 760 759 758 757 756 755 754 752 751 750 749 748 747 745 744 743 742 742 741 739 738 737 736 735 735 734 733 732 731 730 728 727 726 724 723 721 720 718 717 717 715 715 714 713 712 712 711 711 711 710 710 710 710 711 712 712 713 714 716 717
760 759 758 757 756 755 754 753 752 751 749 749 748 747 746 745 744 743 742 741 740 739 738 737 736 735 734 733 732 731 730 729 728 727 726 725 723 722 721 719 718 717 716 715 714 713 712 712 711 711 711 711 710 710 710 711 711 711 712 713 714 716 717
Wind_Speed
8 6 3 1 3 5 7 8 9 10 11 12 13 15 17 17 18 19 20 21 21 21 21 22 23 23 23 23 23 23 23 23 23 23 22 19 17 17 17 17 17 14 12 11 12 13 16 16 17 19 21 21 21 21 21 22 24 25 25 26 28 30 31
14 11 9 6 3 1 3 6 8 9 10 10 11 13 14 16 17 18 19 19 19 20 22 22 23 24 24 23 23 23 23 23 23 22 23 21 18 17 17 18 19 16 13 13 13 13 17 20 21 22 23 23 23 23 23 24 24 25 26 26 26 28 29
15 14 12 11 9 7 5 3 3 4 6 8 9 10 11 12 13 15 16 16 15 16 19 22 23 23 23 23 23 24 24 24 24 24 24 24 23 22 20 19 21 20 16 14 14 13 15 19 23 25 26 25 25 25 25 25 26 26 27 27 27 27 29
14 13 13 12 12 11 10 9 7 5 3 3 5 7 8 9 10 11 12 13 13 13 15 20 22 23 23 23 23 24 25 25 25 25 25 26 26 26 26 24 25 26 21 16 15 15 14 15 18 22 25 26 27 27 28 28 27 28 29 29 28 28 29
15 14 14 13 12 11 10 9 9 7 6 5 4 4 4 6 8 9 11 12 13 12 13 15 18 19 20 21 23 24 24 25 26 25 26 27 27 27 28 27 28 28 24 19 17 16 15 14 15 15 18 24 27 27 28 29 29 29 29 30 30 30 30
16 15 14 14 13 12 10 9 9 8 7 7 6 6 5 5 5 6 8 9 11 13 14 15 15 16 17 19 22 23 23 24 25 25 26 27 27 27 26 27 27 25 21 20 19 18 16 16 15 15 16 21 26 25 24 25 27 29 31 30 31 32 33
17 15 15 14 13 12 11 10 9 9 8 8 9 9 8 7 7 6 6 6 8 9 12 14 15 16 17 19 20 21 21 23 23 24 26 27 27 27 26 26 24 21 20 19 18 18 18 17 16 17 17 19 24 24 21 18 18 23 29 32 32 33 33
17 16 15 14 14 13 12 10 10 9 8 10 11 12 11 9 9 8 7 6 7 7 8 9 11 13 15 16 18 19 20 20 20 20 21 23 25 26 27 26 21 18 19 19 17 17 18 17 17 17 17 17 20 21 20 21 21 19 21 26 31 33 33
17 16 16 15 15 14 12 11 10 9 9 12 14 13 12 10 9 9 8 8 8 9 9 8 8 8 10 12 14 15 17 18 19 19 18 18 20 23 26 24 19 17 17 17 17 17 16 16 17 18 17 17 20 23 23 23 25 24 19 18 23 29 32
17 17 17 17 17 15 14 12 11 9 9 12 14 14 12 11 10 9 9 9 10 10 11 11 11 10 9 9 10 11 13 15 17 19 19 18 17 18 20 21 19 18 17 16 17 17 16 16 18 19 18 18 22 26 24 19 21 25 22 16 15 19 25
16 17 18 18 17 16 15 13 13 12 11 12 14 14 13 12 11 10 10 10 9 9 9 10 12 13 12 12 12 12 13 13 14 16 18 19 20 19 19 19 19 18 18 17 17 17 17 17 18 18 18 18 20 21 23 22 20 21 20 16 14 14 17
14 17 19 18 18 17 16 15 14 12 12 13 15 15 14 13 12 11 11 10 10 9 8 9 9 11 14 16 15 14 14 14 15 16 16 18 20 21 22 22 21 21 20 19 19 19 18 19 19 17 17 19 20 19 22 25 22 20 19 19 18 17 15
13 18 20 18 19 18 17 16 14 12 12 15 16 14 14 13 12 11 10 10 11 11 11 11 10 9 11 13 14 14 15 15 16 17 18 19 19 21 23 23 24 25 23 22 21 22 23 22 19 17 17 20 23 23 24 24 22 21 20 20 21 23 21
13 19 20 18 18 19 18 17 14 11 12 15 15 15 15 13 12 11 11 11 11 11 11 11 11 10 9 10 13 15 15 15 16 17 18 20 21 22 23 23 25 26 25 25 25 26 28 26 22 22 23 22 23 26 27 27 25 24 25 27 30 31 27
15 19 20 19 18 18 19 18 13 11 14 16 16 16 16 14 12 11 11 10 10 11 12 12 12 12 12 11 12 15 15 15 16 16 18 20 21 23 24 25 26 26 25 27 28 29 32 31 28 30 31 28 26 28 29 29 29 30 31 33 32 30 27
16 19 19 19 19 19 19 18 14 12 15 16 17 17 15 14 13 12 10 10 10 10 11 11 10 11 13 13 15 15 13 13 14 16 16 17 19 20 22 23 24 23 23 25 27 28 30 30 29 30 31 30 28 30 31 29 28 29 29 26 21 20 22
14 14 15 17 19 19 19 18 16 14 15 16 16 16 15 13 13 12 11 10 9 8 9 10 10 11 12 14 15 13 11 12 14 14 14 15 17 18 19 21 20 18 20 22 24 26 28 28 28 27 28 27 26 28 30 28 25 24 23 19 15 15 17
11 11 12 16 19 19 18 18 16 14 13 14 15 15 14 13 12 12 11 10 9 9 10 11 11 12 13 13 13 12 13 15 14 12 12 13 16 19 20 20 18 17 19 20 22 24 26 27 28 27 28 28 27 27 29 30 30 26 22 19 17 17 16
9 11 14 18 19 17 16 17 15 13 12 13 14 14 12 12 11 10 10 11 12 12 11 11 10 11 13 14 14 14 15 15 12 11 13 15 17 19 20 19 17 17 19 19 20 21 21 23 26 27 28 28 29 29 30 33 36 32 25 22 22 20 15
12 15 18 18 17 17 16 15 15 14 13 13 14 13 12 11 10 11 11 12 13 12 11 10 10 10 11 12 14 16 16 16 15 16 18 18 19 20 19 18 17 17 19 20 21 22 21 22 23 23 23 24 25 28 30 33 37 36 30 27 25 22 18
16 16 18 17 17 18 16 14 14 15 13 13 12 11 12 12 11 12 13 13 13 12 12 11 10 10 9 10 13 15 17 18 19 20 21 21 22 22 20 19 18 19 20 21 22 23 24 24 23 20 19 19 20 24 27 30 35 38 36 35 31 26 22
16 15 15 17 18 16 12 12 14 13 11 11 11 12 13 14 13 13 13 14 13 12 12 12 11 9 9 10 13 14 16 18 19 21 22 22 22 21 19 19 20 20 21 21 22 22 23 24 24 23 21 20 19 20 23 24 28 33 37 39 39 35 28
15 14 13 15 14 12 10 12 13 13 11 11 11 13 14 13 13 13 12 13 13 13 12 12 9 8 10 12 14 15 16 17 18 19 20 21 20 19 19 19 19 19 20 21 21 22 22 23 23 23 23 22 21 20 19 19 22 28 32 34 35 36 34
13 12 13 14 13 12 12 12 12 12 11 11 11 12 12 12 13 13 12 12 13 12 11 10 9 11 13 15 16 17 18 18 17 17 18 19 19 19 18 18 18 18 19 19 20 21 22 22 22 23 23 22 21 19 17 19 22 27 30 31 31 32 33
12 12 13 13 13 13 12 12 12 12 11 11 11 10 11 12 13 13 13 13 13 12 12 12 13 15 15 15 16 17 18 18 17 17 18 19 19 19 17 16 16 17 18 19 20 20 21 22 22 22 22 22 21 20 19 20 23 26 28 30 29 28 27
11 12 12 12 13 13 12 12 12 11 10 10 9 9 10 12 13 14 15 14 14 14 14 15 15 14 13 14 16 18 18 19 19 19 20 20 19 18 16 14 15 16 17 18 20 20 20 21 22 21 22 23 22 21 21 22 24 26 26 27 26 24 21
11 11 12 13 13 13 12 12 12 11 10 9 9 10 11 13 13 14 14 14 14 14 14 16 15 14 13 15 17 18 18 18 18 18 17 16 16 14 13 13 14 16 17 18 19 20 20 21 21 21 21 21 20 20 23 25 26 26 25 23 23 20 18
11 12 12 13 13 13 13 13 12 11 9 9 12 14 15 15 15 15 14 14 14 15 16 17 16 14 14 14 15 15 15 14 14 14 13 13 13 12 11 12 13 14 15 17 17 18 19 19 18 17 16 16 17 19 22 24 25 26 24 21 19 17 16
12 12 13 14 15 15 15 14 12 11 12 14 17 18 18 17 17 16 16 17 18 19 19 17 14 13 13 13 13 14 13 13 12 12 12 11 11 11 11 11 10 10 11 12 13 15 16 16 15 14 14 14 15 17 20 21 22 24 23 20 16 14 16
14 15 15 16 17 16 16 16 14 14 17 20 20 19 19 18 18 17 17 18 18 18 16 14 13 13 13 12 13 12 12 12 11 11 12 11 10 10 10 10 10 9 8 8 9 10 11 11 11 10 10 12 12 13 17 19 19 20 21 18 14 13 15
15 16 16 17 18 17 16 15 15 17 19 20 20 19 19 18 18 17 17 16 15 13 12 12 12 13 12 12 12 12 11 11 11 11 11 11 11 10 10 10 10 9 8 8 8 8 7 7 8 7 7 7 7 8 11 14 16 18 18 16 14 13 15
16 16 16 16 17 16 15 15 16 17 18 19 19 19 18 18 18 17 16 15 13 12 12 12 12 12 11 11 11 11 10 10 10 10 11 11 11 11 11 10 8 9 11 10 9 8 7 6 6 6 5 4 4 5 6 8 11 12 12 11 11 12 13
15 15 16 16 16 16 15 16 17 17 18 18 17 18 18 17 17 16 15 13 12 12 12 12 11 11 11 11 11 10 10 9 9 10 10 10 10 11 11 10 10 12 12 10 8 8 7 6 5 5 4 3 3 5 5 5 7 8 8 9 9 9 10
13 14 15 16 17 15 14 15 16 16 17 16 16 16 16 15 15 15 14 12 11 11 12 11 10 10 10 9 10 9 9 9 9 9 9 9 10 10 10 10 10 10 9 8 8 8 7 6 6 5 4 4 4 5 5 6 7 7 7 8 9 7 7
14 13 13 15 17 15 13 14 16 17 17 16 15 14 13 12 13 13 11 9 9 10 10 10 10 10 9 9 9 9 9 9 9 8 9 9 8 9 10 10 9 8 7 7 8 7 7 7 7 6 5 4 5 6 6 7 8 8 8 8 8 7 7
14 12 12 14 14 12 12 14 15 16 16 15 13 12 11 10 10 10 9 9 8 8 8 8 9 9 9 8 8 7 8 8 8 8 8 8 8 9 9 8 9 9 8 7 7 7 8 9 8 6 5 5 6 7 7 7 9 11 10 8 7 7 7
Wind_Direction
51 49 41 279 248 247 250 253 255 258 260 261 259 255 255 255 254 252 251 250 251 251 248 246 247 248 248 248 249 250 250 248 246 245 241 235 231 230 227 225 228 239 248 241 232 230 230 228 226 228 231 231 232 233 233 233 235 237 238 238 239 242 241
52 54 54 51 37 327 281 269 264 263 260 260 262 261 259 259 257 254 252 251 251 252 251 250 248 249 250 250 250 249 248 246 244 242 240 234 229 229 226 222 225 233 243 244 236 228 230 233 231 231 233 234 235 236 236 236 237 238 239 240 240 241 242
47 50 52 54 53 48 38 16 320 287 273 266 263 261 262 263 260 257 254 252 251 252 254 254 253 252 252 251 252 251 248 246 245 244 244 241 237 236 234 229 230 234 239 244 243 233 227 230 233 236 237 237 237 238 238 239 240 241 242 243 243 243 244
37 39 41 43 43 43 42 41 41 34 6 315 284 270 265 261 258 256 255 254 253 252 254 257 256 255 255 254 253 251 249 247 247 246 246 246 244 242 242 240 240 241 241 244 248 243 232 225 229 237 239 239 239 238 239 240 241 242 244 244 245 246 246
25 25 26 25 24 25 27 28 31 33 34 27 10 341 304 279 266 259 255 254 254 252 251 255 256 253 255 256 253 249 248 249 249 249 247 246 246 245 245 245 245 245 242 240 244 245 238 228 226 232 236 238 240 239 240 242 242 242 244 245 245 245 244
18 16 16 13 11 10 9 9 11 11 13 12 4 357 348 334 315 290 274 264 259 256 253 253 253 250 251 254 252 249 249 250 252 251 248 246 245 244 245 244 244 242 238 236 239 242 240 234 229 229 234 239 240 238 237 240 242 244 244 245 245 244 244
12 10 8 5 2 2 359 357 357 354 355 356 350 342 337 338 339 332 317 296 278 268 261 256 254 252 250 252 253 253 252 253 255 254 250 249 247 245 244 243 241 238 234 235 238 239 239 237 234 232 233 239 241 238 236 233 234 240 243 243 243 244 245
5 3 2 359 357 355 353 353 352 351 353 353 347 340 331 328 327 325 322 313 299 286 275 267 260 256 252 250 251 251 251 253 254 254 253 251 249 247 245 242 240 236 235 236 237 237 237 235 235 231 226 229 233 232 232 230 228 232 238 240 243 244 245
359 357 356 354 352 350 348 349 348 352 357 351 343 336 328 321 315 310 306 302 299 291 281 275 267 261 257 255 253 251 249 249 248 248 250 250 249 249 246 242 238 236 236 237 237 237 234 232 232 228 219 217 221 224 229 231 232 234 235 237 243 245 244
354 353 351 348 346 345 344 343 338 338 344 340 335 332 326 316 305 299 294 291 290 287 283 278 273 268 264 263 263 260 254 252 249 247 246 245 245 247 245 240 237 236 236 236 237 236 231 228 231 227 217 215 221 226 229 226 227 234 235 233 238 245 247
348 347 346 343 340 340 338 335 331 328 328 329 331 328 321 312 304 296 290 285 282 280 280 281 281 277 274 273 274 271 266 260 255 252 249 246 244 242 241 239 238 238 237 236 239 240 234 231 233 228 219 219 223 224 227 226 225 228 229 226 230 237 243
340 339 341 339 336 335 332 330 326 322 323 327 328 325 318 309 301 293 289 285 280 280 282 284 286 285 284 285 284 280 275 270 263 259 256 254 250 246 243 241 241 241 240 238 240 243 239 236 237 234 223 221 223 220 225 229 228 226 224 222 228 232 234
329 332 336 335 334 332 328 326 323 320 325 327 325 324 321 312 299 291 290 288 283 282 283 286 289 288 288 291 293 289 284 280 275 270 265 262 259 255 251 248 246 245 243 243 245 247 246 241 239 238 232 233 235 231 228 228 225 225 224 222 228 234 234
320 327 331 332 332 328 325 324 322 319 323 324 322 322 321 313 304 297 291 288 286 284 285 288 288 287 286 288 293 295 293 289 286 282 277 272 268 265 261 258 254 251 248 246 246 248 251 249 245 246 247 248 247 241 234 231 227 226 227 229 235 239 237
316 322 327 329 328 325 321 321 321 316 317 320 320 320 317 311 306 300 289 285 287 287 289 289 287 286 283 281 290 296 296 295 297 294 287 282 278 275 272 268 265 262 258 255 251 250 253 254 252 254 256 256 254 250 246 244 242 241 241 240 241 242 240
315 318 322 325 325 324 320 319 318 312 312 316 318 317 314 307 302 298 289 285 288 288 288 288 287 288 283 280 285 288 289 295 300 295 289 287 285 284 281 276 273 271 267 263 260 257 258 258 257 257 258 256 253 253 253 249 246 244 242 238 236 238 237
311 312 315 318 322 323 319 317 318 315 311 315 317 315 312 304 297 292 286 284 286 288 288 287 287 289 287 284 281 277 282 292 290 283 283 287 289 289 285 280 279 277 271 266 264 263 261 260 260 258 257 255 250 249 250 244 236 231 226 222 223 230 229
306 305 308 313 318 320 317 314 315 314 312 315 317 315 311 304 295 291 289 287 289 292 292 287 285 284 282 281 279 277 282 284 276 272 284 291 292 290 285 281 282 281 276 272 270 268 265 262 261 259 257 255 250 246 244 237 232 228 218 210 216 226 227
304 305 310 314 316 317 314 312 310 307 309 314 316 314 311 305 300 301 304 299 295 295 292 287 287 285 279 280 284 287 290 285 270 270 285 290 287 284 280 279 281 278 277 276 273 270 266 264 265 264 260 256 250 246 243 237 235 232 219 212 218 222 223
307 309 312 314 314 314 312 308 304 303 305 311 313 310 308 307 304 305 306 300 295 294 290 286 287 288 286 288 287 286 290 291 280 276 282 283 279 277 276 279 280 276 275 275 274 273 270 266 267 266 261 255 250 247 244 240 238 233 223 220 221 216 216
312 311 311 312 313 314 311 306 306 305 302 304 307 305 306 308 304 301 301 297 293 289 286 286 286 284 287 296 294 288 288 287 280 276 277 275 271 270 273 277 280 279 277 276 274 273 270 266 265 262 257 253 249 245 243 242 240 235 228 226 226 220 220
316 312 310 312 313 311 304 305 313 312 302 300 303 304 305 304 300 299 299 294 290 286 283 283 284 282 287 297 300 298 294 288 283 278 274 271 269 269 273 278 281 280 278 274 271 268 265 261 259 256 255 254 249 245 242 240 239 236 232 231 232 229 227
315 311 307 309 310 304 298 305 314 313 304 300 300 301 304 304 301 302 302 297 291 286 282 281 280 284 294 299 300 300 298 296 291 283 276 273 272 273 278 281 281 278 274 271 268 265 262 259 256 253 253 252 248 245 241 237 240 242 238 233 231 230 229
311 309 307 308 307 305 303 306 310 309 305 303 303 303 303 304 304 305 306 304 295 285 278 279 286 294 298 300 300 299 299 299 296 289 281 277 275 276 279 279 277 274 272 270 266 263 261 260 257 255 254 253 251 245 237 237 246 249 239 229 227 227 228
306 305 304 305 304 303 304 305 306 306 303 303 307 305 302 303 304 304 305 304 298 290 286 288 295 299 299 299 299 299 300 298 294 290 287 283 280 278 276 273 272 271 271 268 265 264 263 261 259 257 256 257 255 246 236 237 243 241 232 225 225 225 225
302 302 301 300 300 300 301 302 302 301 301 305 308 307 307 310 308 307 307 304 297 293 294 294 295 295 295 297 298 299 298 294 290 289 288 285 280 274 269 268 270 269 268 266 265 263 263 262 262 261 260 257 252 244 241 242 238 229 221 219 219 217 215
298 299 300 299 299 299 298 299 299 299 301 307 313 314 314 314 311 309 308 305 300 297 297 296 294 290 289 294 297 297 295 291 286 283 282 278 272 267 264 267 271 270 268 266 266 264 263 263 262 261 258 253 247 244 245 242 232 219 212 209 207 202 196
295 296 297 298 299 300 299 298 296 296 299 309 313 313 311 309 308 307 305 302 300 299 298 296 290 285 287 294 298 300 298 292 285 279 275 273 269 266 268 272 276 276 271 267 266 264 263 264 263 259 254 246 240 240 240 233 221 213 206 199 192 185 178
289 291 295 296 297 297 296 295 293 295 302 307 306 304 304 302 301 302 300 299 298 295 292 289 283 281 287 295 299 302 301 297 294 288 282 277 271 266 269 271 275 281 281 277 274 269 265 265 262 255 247 240 233 230 227 220 213 208 203 195 186 180 176
283 289 293 294 293 290 288 291 295 299 302 302 300 299 299 297 297 297 297 300 301 294 283 278 278 281 288 295 298 300 299 298 300 299 294 289 280 270 270 272 273 281 292 294 287 278 271 268 262 250 240 233 226 221 217 212 208 205 200 192 182 177 179
282 288 291 292 292 290 288 292 299 302 301 299 298 298 298 297 298 297 296 301 307 300 283 277 281 282 286 292 295 295 296 297 300 301 299 296 291 281 275 273 273 281 293 297 294 291 285 274 264 256 244 231 215 208 208 206 204 203 197 191 187 182 179
285 288 291 292 292 291 293 296 299 300 299 297 297 298 299 299 299 297 296 300 302 294 282 279 281 281 285 291 292 291 294 297 298 299 299 298 296 291 283 277 277 282 286 288 290 293 296 289 275 262 251 235 210 197 196 197 198 197 191 188 191 185 176
281 283 291 296 293 289 291 296 298 299 298 297 296 298 300 301 299 296 297 298 293 285 281 279 278 279 283 286 288 289 292 295 296 298 300 298 295 293 291 287 286 285 282 279 280 283 285 286 282 269 248 230 209 195 189 184 185 187 185 185 183 172 166
280 281 288 296 294 289 289 295 299 299 297 297 298 299 301 303 302 298 295 289 280 278 279 278 277 279 281 284 287 289 290 293 295 296 298 300 298 296 297 296 292 287 281 277 278 279 275 274 274 265 247 230 206 192 189 186 182 180 181 184 180 166 156
290 284 284 293 294 290 291 298 300 298 296 297 297 299 304 308 306 302 299 291 281 278 280 279 278 279 281 283 286 290 291 293 293 293 296 301 305 303 302 303 298 290 284 281 280 276 272 273 270 261 253 244 221 207 198 192 193 193 186 185 183 173 162
293 289 289 295 297 293 296 303 304 299 296 295 293 297 306 309 304 301 303 302 296 289 286 286 282 280 282 282 282 288 293 292 290 291 293 297 303 305 305 305 301 296 291 288 284 277 273 272 269 263 260 253 236 227 221 211 212 211 203 195 189 179 172